Address 0xe9011c0db804ecfd2030a40d9a35fba3bd2f1d97

 
Txn Hash
Block
From
To
Value [Txn Fee]
0x60f3de8abcde5b85a446958c97ec1f8e872730ae430fe5d76320ce53bd8472f779064642021-06-01 3:41:5714 days 21 hrs ago0xe9011c0db804ecfd2030a40d9a35fba3bd2f1d97OUT PancakeSwap: Router v20 BNB0.0009356358
0x647703a37665cf4ad60ee895aa86361d0be4ba0e3d81d36e6e5522079c622c1e79064472021-06-01 3:41:0614 days 21 hrs ago0xe9011c0db804ecfd2030a40d9a35fba3bd2f1d97OUT PancakeSwap: Router v20 BNB0.0023578524
0x36b551a30833cd723795a33f21f787a177adf41b29e692f2798f8f10c265f3e379064392021-06-01 3:40:4214 days 21 hrs ago0xe9011c0db804ecfd2030a40d9a35fba3bd2f1d97OUT 0xaee234825dc4687fae606485c1ebd06336052bcc0 BNB0.0002270775
0x24717dc0754d14ca8ad471c9f22716d7fc5681eeb31db722622544e710908f0d79061732021-06-01 3:27:2414 days 21 hrs ago0xe9011c0db804ecfd2030a40d9a35fba3bd2f1d97OUT PancakeSwap: Router v20 BNB0.0020356701
0xff2fa29da25aed1227383a680c0d448f335f0ec0172376201b86cc9b40968b4279061452021-06-01 3:26:0014 days 21 hrs ago0xe9011c0db804ecfd2030a40d9a35fba3bd2f1d97OUT PancakeSwap: Router v20 BNB0.0008259093
0x080733261fd82e21b792a4627409cedd6f2ab8088744a2111a9284f1171a98d279061372021-06-01 3:25:3614 days 21 hrs ago0xe9011c0db804ecfd2030a40d9a35fba3bd2f1d97OUT Venus: VRT Token0 BNB0.0002355282
0x88efa94a1b0f1d96c238dcc9038e99e76bf5e6f41fc324e5bdf6c09d9c654d9e75156752021-05-18 12:13:3328 days 13 hrs ago0xe9011c0db804ecfd2030a40d9a35fba3bd2f1d97OUT BUSD-T Stablecoin0 BNB0.0002607477
0xfae98722a75f46ea0b65dd04fcc27fb99b99382b5a41cfc98b3a10a6faeb4f5375156062021-05-18 12:09:3928 days 13 hrs ago0xe9011c0db804ecfd2030a40d9a35fba3bd2f1d97OUT PancakeSwap: Router v20 BNB0.0010002579
0x83368a53225507d0c156e8545227467b906efc925c01e8316942c2899e9f4b2174896572021-05-17 14:05:4929 days 11 hrs ago0xe9011c0db804ecfd2030a40d9a35fba3bd2f1d97OUT 0xb6c53431608e626ac81a9776ac3e999c5556717c0 BNB0.0002578254
0xc3111ab1755df3218ec07924283612a54bc5117ab01d9e090c1954d1d0876eed74894452021-05-17 13:55:1329 days 11 hrs ago0xe9011c0db804ecfd2030a40d9a35fba3bd2f1d97OUT BUSD-T Stablecoin0 BNB0.0001841865
0x945267d0f75ec034223682ca9aea83e6fcb7ff275bca0311c95f066673e0c23574893382021-05-17 13:49:5229 days 11 hrs ago0xe9011c0db804ecfd2030a40d9a35fba3bd2f1d97OUT PancakeSwap: Router v20 BNB0.0010770231
0xc833cd50421a1e130b9403c70e85bb6c42bcaf321ee80697764144e1aea1f27874893302021-05-17 13:49:2829 days 11 hrs ago0xe9011c0db804ecfd2030a40d9a35fba3bd2f1d97OUT 0xb6c53431608e626ac81a9776ac3e999c5556717c0 BNB0.000245769
0x30115d98f40eb46301be17063f49490e5ec11c545ea13e869b54a203907888a374874872021-05-17 12:14:3429 days 13 hrs ago0xe9011c0db804ecfd2030a40d9a35fba3bd2f1d97OUT Venus: XVS Token0 BNB0.000286671
0x22f659993d7357d1c27a6db9c274cdc59c0ee376b8ec199d9f3a02bc8dcd999474165112021-05-14 23:59:1732 days 1 hr ago0xe9011c0db804ecfd2030a40d9a35fba3bd2f1d97OUT PancakeSwap: Router v20 BNB0.0019813675
0xf0acb080aa6b4fd242769087f88d179cd6b1c4b3ab5dced0555a947349cf6d3974164842021-05-14 23:57:5632 days 1 hr ago0xe9011c0db804ecfd2030a40d9a35fba3bd2f1d97OUT PancakeSwap: Router v20 BNB0.0013429269
0xe3f7bba27f5cf124932093af45d31db65334dc9166a8baa73df7a7ab4449e9a574164282021-05-14 23:55:0632 days 1 hr ago0xe9011c0db804ecfd2030a40d9a35fba3bd2f1d97OUT TradeStars: TSX Token0 BNB0.0002275569
0x4a7341404c976e318ff2bfd1eec7d46b1ec19b8a197f6df3e17e11cc4cb29a7673949302021-05-14 5:45:2532 days 19 hrs ago0xe9011c0db804ecfd2030a40d9a35fba3bd2f1d97OUT PancakeSwap: Router v20 BNB0.0022198418
0xe81ef5b72e2d49db39db63a62f668890cf7c032bf98ac532b14f07cc35840f9c73770882021-05-13 14:44:2233 days 10 hrs ago0xe9011c0db804ecfd2030a40d9a35fba3bd2f1d97OUT BUSD-T Stablecoin0 BNB0.0005162615
0xfae0c6d3c1f53c54244d7e8a169a8a229f5c39c24328aec8d685bd4db98c53ac73770382021-05-13 14:41:5233 days 10 hrs ago0xe9011c0db804ecfd2030a40d9a35fba3bd2f1d97OUT PancakeSwap: Router v20 BNB0.0037203047
0xf6165d82ab3e10d42bafc99df4a21f70e8e0781e78ae2fc92bf6f61aa374787073719082021-05-13 10:19:4633 days 15 hrs ago0xe9011c0db804ecfd2030a40d9a35fba3bd2f1d97OUT PancakeSwap: Router v20.2718 BNB0.0027360278
0x857a368e6c212c0070c4b11eb3bfc5d921b51164f019e6bbdb9a84211923bc9473704012021-05-13 9:02:4133 days 16 hrs ago0xe9011c0db804ecfd2030a40d9a35fba3bd2f1d97OUT PancakeSwap: Router v20 BNB0.0036135319
0xc746f3ba8c79018c60c6df5a41917409ba9d4622d7a11ba05b33d73de029b09673641752021-05-13 3:43:5033 days 21 hrs ago0xe9011c0db804ecfd2030a40d9a35fba3bd2f1d97OUT Feg: FEG Token0 BNB0.0014341283
0xda5fdddc522ba252f74d590006be145e9fe7b69167262b7003eea6688b5fb5c673633542021-05-13 3:01:3433 days 22 hrs ago0xe9011c0db804ecfd2030a40d9a35fba3bd2f1d97OUT Feg: FEG Token0 BNB0.0005375909
0x445443d097a9409f7908007a98ba6a6a09ca95781ef743b12c6457c5e36b3da273255372021-05-11 16:49:1835 days 8 hrs agoBinance: Hot Wallet 5 IN 0xe9011c0db804ecfd2030a40d9a35fba3bd2f1d970.10313636 BNB0.000336
0xccab835ed1114d102a7e1dbe9460dfbe0f3a4cbb372818975753a9943948934c73240982021-05-11 15:33:0535 days 9 hrs ago0xe9011c0db804ecfd2030a40d9a35fba3bd2f1d97OUT BUSD-T Stablecoin0 BNB0.0006184915
[ Download CSV Export 
Latest 6 internal transactions
Parent Txn Hash Block From To Value
0x857a368e6c212c0070c4b11eb3bfc5d921b51164f019e6bbdb9a84211923bc9473704012021-05-13 9:02:4133 days 16 hrs ago PancakeSwap: Router v20xe9011c0db804ecfd2030a40d9a35fba3bd2f1d970.271865695751948136 BNB
0x6c132a1c9dcad6c2c1a5f577298f3cf6f31b4bf7e7ca1134f7491a95936ef1a573007702021-05-10 16:05:5336 days 9 hrs ago PancakeSwap: Router v20xe9011c0db804ecfd2030a40d9a35fba3bd2f1d970.027600333296443827 BNB
0xb7d132ce2d1fbad55de0391779c9bc2cbbeb569000a148b4da95a05acb926ed572686882021-05-09 11:42:2237 days 13 hrs ago PancakeSwap: Router v20xe9011c0db804ecfd2030a40d9a35fba3bd2f1d970.023662211133982956 BNB
0xc558c067a11ca748baf73b2ab64009fc3a0251f3aa90e02128a101fbb014831572379932021-05-08 8:55:2838 days 16 hrs ago PancakeSwap: Router v20xe9011c0db804ecfd2030a40d9a35fba3bd2f1d970.005733956017422075 BNB
0xf5187fb21c5626a516b5cc8fed7bdde556b8b9cbf15afc3674682cc6b9a6b28e67294952021-04-20 11:27:5356 days 13 hrs ago PancakeSwap: Router0xe9011c0db804ecfd2030a40d9a35fba3bd2f1d970.072923905089731943 BNB
0x0e515677a0937d938976bc5f9a40a4fcb232c86d2f36ac94f2c664238626920c67294582021-04-20 11:26:0256 days 13 hrs ago PancakeSwap: Router0xe9011c0db804ecfd2030a40d9a35fba3bd2f1d970.069282558792421466 BNB
[ Download CSV Export 
Loading

Contract Name:
0 BNB

Compiler Version
0

Optimization Enabled:
0 BNB

Other Settings:
-NA-
Block Transaction Gas Used Reward
Age Block Fee Address BC Fee Address Voting Power Jailed Incoming
Block Uncle Number Difficulty Gas Used Reward
Loading
Loading
Make sure to use the "Vote Down" button for any spammy posts, and the "Vote Up" for interesting conversations.